Weather History for KMCW - February, 2014

Change the Weather History Date:

Friday, February 28, 2014

  Actual Average Record
Temperature  
Mean Temperature 4 °F 26 °F  
Max Temperature 19 °F 34 °F 60 °F (2000)
Min Temperature -11 °F 17 °F -22 °F (1962)
Degree Days  
Heating Degree Days 61 39  
Month to date heating degree days 1576 1240  
Since 1 July heating degree days 6546 5851  
Cooling Degree Days 0 0  
Month to date cooling degree days 0 0  
Year to date cooling degree days 0 0  
Moisture  
Dew Point 6 °F    
Average Humidity 78    
Maximum Humidity 92    
Minimum Humidity 64    
Precipitation  
Precipitation 0.07 in 0.05 in 0.61 in (1939)
Month to date precipitation 0.52 1.00  
Year to date precipitation 1.35 1.82  
Snow  
Snow 1.10 in 0.20 in 9.00 in (1939)
Month to date snowfall 20.5 7.7  
Since 1 July snowfall 46.1 32.5  
Snow Depth 18.00 in    
Sea Level Pressure  
Sea Level Pressure 30.01 in    
Wind  
Wind Speed 14 mph (West)    
Max Wind Speed 24 mph    
Max Gust Speed 28 mph    
Visibility 6 miles    
Events Snow    
T = Trace of Precipitation, MM = Missing Value Source: NWS Daily Summary

Daily Weather History Graph

Daily Weather History Graph

Search for Another Location

Airport or City:

Trip Planner

Search our weather history database for the weather conditions in past years. The results will help you decide how hot, cold, wet, or windy it might be!

Date:

Astronomy

Feb. 28, 2014 Rise Set
Actual Time 6:51 AM CST 6:01 PM CST
Civil Twilight 6:22 AM CST 6:29 PM CST
Nautical Twilight 5:49 AM CST 7:02 PM CST
Astronomical Twilight 5:16 AM CST 7:35 PM CST
Moon 6:06 AM CST (2/28) 5:39 PM CST (2/28)
Length of Visible Light 12h 07m
Length of Day
11h 10m
Waning Crescent, 1% of the Moon is Illuminated
Feb 28
Waning Crescent
Mar 1
New
Mar 8
First Quarter
Mar 16
Full
Mar 23
Last Quarter

Hourly Weather History & Observations

Time (CST) Temp. Windchill Dew Point Humidity Pressure Visibility Wind Dir Wind Speed Gust Speed Precip Events Conditions
12:53 AM -9.9 °F -27.5 °F -18.0 °F 68% 30.12 in 10.0 mi SE 9.2 mph - N/A   Clear
1:53 AM -8.0 °F -26.1 °F -16.1 °F 68% 30.09 in 10.0 mi SE 10.4 mph - N/A   Clear
2:53 AM -6.0 °F -25.5 °F -14.1 °F 68% 30.07 in 10.0 mi SE 12.7 mph - N/A   Overcast
3:53 AM -5.1 °F -25.1 °F -11.9 °F 72% 30.05 in 10.0 mi SE 13.8 mph - N/A   Overcast
4:53 AM -2.0 °F -21.9 °F -9.9 °F 69% 30.04 in 10.0 mi SE 15.0 mph - N/A   Mostly Cloudy
5:53 AM -0.0 °F -20.7 °F -7.1 °F 72% 30.01 in 10.0 mi SSE 17.3 mph - N/A   Scattered Clouds
6:53 AM 1.9 °F -18.7 °F -5.1 °F 72% 29.98 in 10.0 mi SE 18.4 mph - N/A   Mostly Cloudy
7:53 AM 3.9 °F -14.3 °F -2.9 °F 73% 29.96 in 10.0 mi SE 15.0 mph - N/A   Overcast
8:53 AM 5.0 °F -16.2 °F -2.0 °F 73% 29.96 in 10.0 mi SE 21.9 mph - N/A   Scattered Clouds
9:53 AM 8.1 °F -11.7 °F 1.0 °F 73% 29.94 in 10.0 mi SSE 20.7 mph - N/A   Scattered Clouds
10:53 AM 10.9 °F -5.9 °F 3.9 °F 73% 29.97 in 10.0 mi SSE 16.1 mph 23.0 mph N/A   Mostly Cloudy
11:53 AM 14.0 °F -0.8 °F 8.1 °F 77% 29.97 in 10.0 mi South 13.8 mph - N/A   Partly Cloudy
12:53 PM 17.1 °F 5.8 °F 10.0 °F 74% 29.96 in 10.0 mi South 9.2 mph - N/A   Partly Cloudy
1:53 PM 19.0 °F 7.5 °F 12.0 °F 74% 29.94 in 10.0 mi South 10.4 mph - N/A   Mostly Cloudy
2:53 PM 19.0 °F 8.2 °F 12.0 °F 74% 29.95 in 10.0 mi SSW 9.2 mph - N/A   Overcast
3:53 PM 19.0 °F 7.5 °F 12.0 °F 74% 29.98 in 4.0 mi WNW 10.4 mph - 0.00 in Snow Light Snow
4:02 PM 19.0 °F 8.2 °F 12.9 °F 77% 29.91 in 2.0 mi WNW 9.2 mph - 0.00 in Snow Light Snow
4:23 PM 18.0 °F 7.7 °F 14.0 °F 84% 29.92 in 0.8 mi West 8.1 mph - 0.00 in Snow Light Snow
4:41 PM 18.0 °F 6.9 °F 15.1 °F 88% 29.92 in 1.0 mi WNW 9.2 mph - 0.00 in Snow Light Snow
4:53 PM 18.0 °F 6.9 °F 15.1 °F 88% 30.00 in 1.0 mi West 9.2 mph - 0.00 in Snow Light Snow
5:39 PM 18.0 °F 5.4 °F 14.0 °F 84% 29.95 in 2.0 mi NW 11.5 mph - 0.01 in Snow Light Snow
5:53 PM 18.0 °F 4.8 °F 12.9 °F 81% 30.02 in 4.0 mi WNW 12.7 mph - 0.01 in Snow Light Snow
6:05 PM 17.1 °F 3.6 °F 14.0 °F 88% 29.96 in 2.5 mi NW 12.7 mph - 0.00 in Snow Light Snow
6:37 PM 17.1 °F 3.6 °F 12.9 °F 84% 29.98 in 3.0 mi NW 12.7 mph - 0.00 in Snow Light Snow
6:53 PM 16.0 °F 2.9 °F 12.9 °F 88% 30.05 in 2.0 mi NW 11.5 mph - 0.00 in Snow Light Snow
7:22 PM 16.0 °F 4.4 °F 12.9 °F 88% 30.00 in 3.0 mi NW 9.2 mph - 0.00 in Snow Light Snow
7:53 PM 16.0 °F 5.3 °F 12.9 °F 88% 30.07 in 3.0 mi NW 8.1 mph - 0.00 in Snow Light Snow
8:07 PM 16.0 °F 5.3 °F 14.0 °F 92% 30.01 in 2.5 mi NW 8.1 mph - 0.00 in Snow Light Snow
8:18 PM 16.0 °F 5.3 °F 12.9 °F 88% 30.01 in 4.0 mi NW 8.1 mph - 0.00 in Snow Light Snow
8:53 PM 16.0 °F 5.3 °F 12.9 °F 88% 30.09 in 5.0 mi NW 8.1 mph - 0.00 in Snow Light Snow
9:25 PM 16.0 °F 3.6 °F 12.9 °F 88% 30.04 in 2.5 mi NW 10.4 mph - 0.00 in Snow Light Snow
9:36 PM 16.0 °F 3.6 °F 12.9 °F 88% 30.04 in 3.0 mi NNW 10.4 mph - 0.00 in Snow Light Snow
9:53 PM 16.0 °F 2.3 °F 12.9 °F 88% 30.11 in 4.0 mi NW 12.7 mph - 0.00 in Snow Light Snow
10:02 PM 16.0 °F -1.3 °F 12.0 °F 84% 30.06 in 6.0 mi NNW 20.7 mph - 0.00 in Snow Light Snow
10:44 PM 14.0 °F -3.0 °F 8.1 °F 77% 30.08 in 10.0 mi NNW 18.4 mph - 0.00 in   Overcast
10:53 PM 14.0 °F -3.9 °F 9.0 °F 80% 30.14 in 8.0 mi NNW 20.7 mph - 0.00 in   Overcast
11:53 PM 10.9 °F -8.8 °F 6.1 °F 81% 30.17 in 4.0 mi NNW 23.0 mph - 0.00 in Snow Light Snow